Time,TemperatureF,DewpointF,PressureIn,WindDirection,WindDirectionDegrees,WindSpeedMPH,WindSpeedGustMPH,Humidity,HourlyPrecipIn,Conditions,Clouds,dailyrainin,SoftwareType,DateUTC
2013-04-07 00:22:00,63.0,51.0,28.20,WNW,300,32.0,46.0,64,0.00,,,-99.99,,2013-04-07 07:22:00,
2013-04-07 00:32:00,63.0,51.0,28.20,WNW,300,32.0,46.0,64,0.00,,,-99.99,,2013-04-07 07:32:00,
2013-04-07 00:42:00,63.0,51.0,28.20,WNW,300,32.0,46.0,64,0.00,,,-99.99,,2013-04-07 07:42:00,
2013-04-07 00:51:00,62.0,50.0,28.20,WNW,300,31.0,42.0,64,0.00,,,-99.99,,2013-04-07 07:51:00,
2013-04-07 01:22:00,62.0,50.0,28.20,WNW,300,31.0,42.0,64,0.00,,,-99.99,,2013-04-07 08:22:00,
2013-04-07 01:32:00,62.0,50.0,28.20,WNW,300,31.0,42.0,64,0.00,,,-99.99,,2013-04-07 08:32:00,
2013-04-07 01:42:00,62.0,50.0,28.20,WNW,300,31.0,42.0,64,0.00,,,-99.99,,2013-04-07 08:42:00,
2013-04-07 01:51:00,61.0,50.0,28.17,WNW,300,32.0,41.0,68,0.00,,,-99.99,,2013-04-07 08:51:00,
2013-04-07 02:22:00,61.0,50.0,28.17,WNW,300,32.0,41.0,68,0.00,,,-99.99,,2013-04-07 09:22:00,
2013-04-07 02:33:00,61.0,50.0,28.17,WNW,300,32.0,41.0,68,0.00,,,-99.99,,2013-04-07 09:33:00,
2013-04-07 02:43:00,61.0,50.0,28.17,WNW,300,32.0,41.0,68,0.00,,,-99.99,,2013-04-07 09:43:00,
2013-04-07 02:51:00,60.0,49.0,28.16,WNW,290,37.0,46.0,68,0.00,,,-99.99,,2013-04-07 09:51:00,
2013-04-07 03:22:00,60.0,49.0,28.16,WNW,290,37.0,46.0,68,0.00,,,-99.99,,2013-04-07 10:22:00,
2013-04-07 03:33:00,60.0,49.0,28.16,WNW,290,37.0,46.0,68,0.00,,,-99.99,,2013-04-07 10:33:00,
2013-04-07 03:42:00,60.0,49.0,28.16,WNW,290,37.0,46.0,68,0.00,,,-99.99,,2013-04-07 10:42:00,
2013-04-07 03:51:00,60.0,49.0,28.16,WNW,290,37.0,48.0,66,0.00,,,-99.99,,2013-04-07 10:51:00,
2013-04-07 04:22:00,60.0,49.0,28.16,WNW,290,37.0,48.0,66,0.00,,,-99.99,,2013-04-07 11:22:00,
2013-04-07 04:32:00,60.0,49.0,28.16,WNW,290,37.0,48.0,66,0.00,,,-99.99,,2013-04-07 11:32:00,
2013-04-07 04:42:00,60.0,49.0,28.16,WNW,290,37.0,48.0,66,0.00,,,-99.99,,2013-04-07 11:42:00,
2013-04-07 04:51:00,59.0,48.0,28.16,WNW,300,33.0,46.0,67,0.00,,,-99.99,,2013-04-07 11:51:00,
2013-04-07 05:22:00,59.0,48.0,28.16,WNW,300,33.0,46.0,67,0.00,,,-99.99,,2013-04-07 12:22:00,
2013-04-07 05:33:00,59.0,48.0,28.16,WNW,300,33.0,46.0,67,0.00,,,-99.99,,2013-04-07 12:33:00,
2013-04-07 05:42:00,59.0,48.0,28.16,WNW,300,33.0,46.0,67,0.00,,,-99.99,,2013-04-07 12:42:00,
2013-04-07 05:51:00,58.0,49.0,28.17,WNW,290,31.0,38.0,71,0.00,,,-99.99,,2013-04-07 12:51:00,
2013-04-07 06:22:00,58.0,49.0,28.17,WNW,290,31.0,38.0,71,0.00,,,-99.99,,2013-04-07 13:22:00,
2013-04-07 06:32:00,58.0,49.0,28.17,WNW,290,31.0,38.0,71,0.00,,,-99.99,,2013-04-07 13:32:00,
2013-04-07 06:42:00,58.0,49.0,28.17,WNW,290,31.0,38.0,71,0.00,,,-99.99,,2013-04-07 13:42:00,
2013-04-07 06:51:00,57.0,47.0,28.18,WNW,300,22.0,29.0,69,0.00,,,-99.99,,2013-04-07 13:51:00,
2013-04-07 07:23:00,57.0,47.0,28.18,WNW,300,22.0,29.0,69,0.00,,,-99.99,,2013-04-07 14:23:00,
2013-04-07 07:32:00,57.0,47.0,28.18,WNW,300,22.0,29.0,69,0.00,,,-99.99,,2013-04-07 14:32:00,
2013-04-07 07:43:00,57.0,47.0,28.18,WNW,300,22.0,29.0,69,0.00,,,-99.99,,2013-04-07 14:43:00,
2013-04-07 08:51:00,63.0,47.0,28.22,WNW,300,20.0,27.0,55,0.00,,,-99.99,,2013-04-07 15:51:00,
2013-04-07 09:24:00,63.0,47.0,28.22,WNW,300,20.0,27.0,55,0.00,,,-99.99,,2013-04-07 16:24:00,
2013-04-07 09:33:00,63.0,47.0,28.22,WNW,300,20.0,27.0,55,0.00,,,-99.99,,2013-04-07 16:33:00,
2013-04-07 09:42:00,63.0,47.0,28.22,WNW,300,20.0,27.0,55,0.00,,,-99.99,,2013-04-07 16:42:00,
2013-04-07 09:51:00,67.0,46.0,28.23,West,270,13.0,18.0,46,0.00,,,-99.99,,2013-04-07 16:51:00,
2013-04-07 10:23:00,67.0,46.0,28.23,West,270,13.0,18.0,46,0.00,,,-99.99,,2013-04-07 17:23:00,
2013-04-07 10:32:00,67.0,46.0,28.23,West,270,13.0,18.0,46,0.00,,,-99.99,,2013-04-07 17:32:00,
2013-04-07 10:42:00,67.0,46.0,28.23,West,270,13.0,18.0,46,0.00,,,-99.99,,2013-04-07 17:42:00,
2013-04-07 10:51:00,71.0,44.0,28.23,WNW,300,10.0,13.0,38,0.00,,,-99.99,,2013-04-07 17:51:00,
2013-04-07 11:22:00,71.0,44.0,28.23,WNW,300,10.0,13.0,38,0.00,,,-99.99,,2013-04-07 18:22:00,
2013-04-07 11:32:00,71.0,44.0,28.23,WNW,300,10.0,13.0,38,0.00,,,-99.99,,2013-04-07 18:32:00,
2013-04-07 11:42:00,71.0,44.0,28.23,WNW,300,10.0,13.0,38,0.00,,,-99.99,,2013-04-07 18:42:00,
2013-04-07 11:51:00,76.0,45.0,28.21,WSW,250,8.0,12.0,33,0.00,,,-99.99,,2013-04-07 18:51:00,
2013-04-07 12:22:00,76.0,45.0,28.21,WSW,250,8.0,12.0,33,0.00,,,-99.99,,2013-04-07 19:22:00,
2013-04-07 12:32:00,76.0,45.0,28.21,WSW,250,8.0,12.0,33,0.00,,,-99.99,,2013-04-07 19:32:00,
2013-04-07 12:42:00,76.0,45.0,28.21,WSW,250,8.0,12.0,33,0.00,,,-99.99,,2013-04-07 19:42:00,
2013-04-07 12:51:00,81.0,42.0,28.19,SSW,210,2.0,9.0,25,0.00,,,-99.99,,2013-04-07 19:51:00,
2013-04-07 13:22:00,81.0,42.0,28.19,SSW,210,2.0,9.0,25,0.00,,,-99.99,,2013-04-07 20:22:00,
2013-04-07 13:32:00,81.0,42.0,28.19,SSW,210,2.0,9.0,25,0.00,,,-99.99,,2013-04-07 20:32:00,
2013-04-07 13:42:00,81.0,42.0,28.19,SSW,210,2.0,9.0,25,0.00,,,-99.99,,2013-04-07 20:42:00,
2013-04-07 13:51:00,82.0,42.0,28.18,SW,230,2.0,9.0,24,0.00,,,-99.99,,2013-04-07 20:51:00,
2013-04-07 14:22:00,82.0,42.0,28.18,SW,230,2.0,9.0,24,0.00,,,-99.99,,2013-04-07 21:22:00,
2013-04-07 14:33:00,82.0,42.0,28.18,SW,230,2.0,9.0,24,0.00,,,-99.99,,2013-04-07 21:33:00,
2013-04-07 14:43:00,82.0,42.0,28.18,SW,230,2.0,9.0,24,0.00,,,-99.99,,2013-04-07 21:43:00,
2013-04-07 14:51:00,80.0,46.0,28.16,West,270,6.0,13.0,30,0.00,,,-99.99,,2013-04-07 21:51:00,
2013-04-07 15:23:00,80.0,46.0,28.16,West,270,6.0,13.0,30,0.00,,,-99.99,,2013-04-07 22:23:00,
2013-04-07 15:33:00,80.0,46.0,28.16,West,270,6.0,13.0,30,0.00,,,-99.99,,2013-04-07 22:33:00,
2013-04-07 15:43:00,80.0,46.0,28.16,West,270,6.0,13.0,30,0.00,,,-99.99,,2013-04-07 22:43:00,
2013-04-07 15:51:00,81.0,47.0,28.13,West,260,9.0,16.0,30,0.00,,,-99.99,,2013-04-07 22:51:00,
2013-04-07 16:22:00,81.0,47.0,28.13,West,260,9.0,16.0,30,0.00,,,-99.99,,2013-04-07 23:22:00,
2013-04-07 16:32:00,81.0,47.0,28.13,West,260,9.0,16.0,30,0.00,,,-99.99,,2013-04-07 23:32:00,
2013-04-07 16:42:00,81.0,47.0,28.13,West,260,9.0,16.0,30,0.00,,,-99.99,,2013-04-07 23:42:00,
2013-04-07 16:51:00,79.0,46.0,28.11,WNW,290,20.0,31.0,31,0.00,,,-99.99,,2013-04-07 23:51:00,
2013-04-07 17:22:00,79.0,46.0,28.11,WNW,290,20.0,31.0,31,0.00,,,-99.99,,2013-04-08 00:22:00,
2013-04-07 17:32:00,79.0,46.0,28.11,WNW,290,20.0,31.0,31,0.00,,,-99.99,,2013-04-08 00:32:00,
2013-04-07 17:42:00,79.0,46.0,28.11,WNW,290,20.0,31.0,31,0.00,,,-99.99,,2013-04-08 00:42:00,
2013-04-07 17:51:00,77.0,49.0,28.08,West,270,26.0,35.0,37,0.00,,,-99.99,,2013-04-08 00:51:00,
2013-04-07 18:22:00,77.0,49.0,28.08,West,270,26.0,35.0,37,0.00,,,-99.99,,2013-04-08 01:22:00,
2013-04-07 18:33:00,77.0,49.0,28.08,West,270,26.0,35.0,37,0.00,,,-99.99,,2013-04-08 01:33:00,
2013-04-07 18:43:00,77.0,49.0,28.08,West,270,26.0,35.0,37,0.00,,,-99.99,,2013-04-08 01:43:00,
2013-04-07 18:51:00,74.0,48.0,28.07,West,280,28.0,46.0,40,0.00,,,-99.99,,2013-04-08 01:51:00,
2013-04-07 19:22:00,74.0,48.0,28.07,West,280,28.0,46.0,40,0.00,,,-99.99,,2013-04-08 02:22:00,
2013-04-07 19:33:00,74.0,48.0,28.07,West,280,28.0,46.0,40,0.00,,,-99.99,,2013-04-08 02:33:00,
2013-04-07 19:45:00,74.0,48.0,28.07,West,280,28.0,46.0,40,0.00,,,-99.99,,2013-04-08 02:45:00,
2013-04-07 19:51:00,71.0,49.0,28.06,WNW,290,25.0,36.0,45,0.00,,,-99.99,,2013-04-08 02:51:00,
2013-04-07 20:23:00,71.0,49.0,28.06,WNW,290,25.0,36.0,45,0.00,,,-99.99,,2013-04-08 03:23:00,
2013-04-07 20:33:00,71.0,49.0,28.06,WNW,290,25.0,36.0,45,0.00,,,-99.99,,2013-04-08 03:33:00,
2013-04-07 20:51:00,68.0,50.0,28.06,WNW,290,28.0,41.0,52,0.00,,,-99.99,,2013-04-08 03:51:00,
2013-04-07 21:23:00,68.0,50.0,28.06,WNW,290,28.0,41.0,52,0.00,,,-99.99,,2013-04-08 04:23:00,
2013-04-07 21:33:00,68.0,50.0,28.06,WNW,290,28.0,41.0,52,0.00,,,-99.99,,2013-04-08 04:33:00,
2013-04-07 21:43:00,68.0,50.0,28.06,WNW,290,28.0,41.0,52,0.00,,,-99.99,,2013-04-08 04:43:00,
2013-04-07 21:51:00,65.0,50.0,28.07,NNW,330,22.0,32.0,58,0.00,,,-99.99,,2013-04-08 04:51:00,
2013-04-07 22:32:00,65.0,50.0,28.07,NNW,330,22.0,32.0,58,0.00,,,-99.99,,2013-04-08 05:32:00,
2013-04-07 22:42:00,65.0,50.0,28.07,NNW,330,22.0,32.0,58,0.00,,,-99.99,,2013-04-08 05:42:00,
2013-04-07 22:51:00,64.0,49.0,28.04,West,280,25.0,40.0,59,0.00,,,-99.99,,2013-04-08 05:51:00,
2013-04-07 23:22:00,64.0,49.0,28.04,West,280,25.0,40.0,59,0.00,,,-99.99,,2013-04-08 06:22:00,
2013-04-07 23:32:00,64.0,49.0,28.04,West,280,25.0,40.0,59,0.00,,,-99.99,,2013-04-08 06:32:00,
2013-04-07 23:42:00,64.0,49.0,28.04,West,280,25.0,40.0,59,0.00,,,-99.99,,2013-04-08 06:42:00,